Year,Month,Day,Hour,Minute,Value (Times are PST for temperature in C)
2013,07,28,01,13,10.30
2013,07,28,01,14,10.30
2013,07,28,01,15,10.30
2013,07,28,01,16,10.30
2013,07,28,01,17,10.30
2013,07,28,01,18,10.30
2013,07,28,01,19,10.30
2013,07,28,01,20,10.30
2013,07,28,01,21,10.30
2013,07,28,01,22,10.30
2013,07,28,01,23,10.30
2013,07,28,01,24,10.30
2013,07,28,01,25,10.30
2013,07,28,01,26,10.30
2013,07,28,01,27,10.30
2013,07,28,01,28,10.20
2013,07,28,01,29,10.20
2013,07,28,01,30,10.20
2013,07,28,01,31,10.20
2013,07,28,01,32,10.20
2013,07,28,01,33,10.20
2013,07,28,01,34,10.20
2013,07,28,01,35,10.20
2013,07,28,01,36,10.20
2013,07,28,01,37,10.20
2013,07,28,01,38,10.20
2013,07,28,01,39,10.20
2013,07,28,01,40,10.20
2013,07,28,01,41,10.20
2013,07,28,01,42,10.20
2013,07,28,01,43,10.20
2013,07,28,01,44,10.20
2013,07,28,01,45,10.20
2013,07,28,01,46,10.20
2013,07,28,01,47,10.20
2013,07,28,01,48,10.20
2013,07,28,01,49,10.20
2013,07,28,01,50,10.20
2013,07,28,01,51,10.20
2013,07,28,01,52,10.20
2013,07,28,01,53,10.20
2013,07,28,01,54,10.20
2013,07,28,01,55,10.20
2013,07,28,01,56,10.20
2013,07,28,01,57,10.20
2013,07,28,01,58,10.20
2013,07,28,01,59,10.20
2013,07,28,02,00,10.20
2013,07,28,02,01,10.20
2013,07,28,02,02,10.20
2013,07,28,02,03,10.20
2013,07,28,02,04,10.20
2013,07,28,02,05,10.20
2013,07,28,02,06,10.20
2013,07,28,02,07,10.20
2013,07,28,02,08,10.20
2013,07,28,02,09,10.20
2013,07,28,02,10,10.20
2013,07,28,02,11,10.20
2013,07,28,02,12,10.20
2013,07,28,02,13,10.20
2013,07,28,02,14,10.20
2013,07,28,02,15,10.20
2013,07,28,02,16,10.20
2013,07,28,02,17,10.20
2013,07,28,02,18,10.20
2013,07,28,02,19,10.20
2013,07,28,02,20,10.20
2013,07,28,02,21,10.20
2013,07,28,02,22,10.20
2013,07,28,02,23,10.20
2013,07,28,02,24,10.20
2013,07,28,02,25,10.20
2013,07,28,02,26,10.20
2013,07,28,02,27,10.20
2013,07,28,02,28,10.20
2013,07,28,02,29,10.20
2013,07,28,02,30,10.20
2013,07,28,02,31,10.20
2013,07,28,02,32,10.20
2013,07,28,02,33,10.20
2013,07,28,02,34,10.20
2013,07,28,02,35,10.20
2013,07,28,02,36,10.20
2013,07,28,02,37,10.20
2013,07,28,02,38,10.20
2013,07,28,02,39,10.20
2013,07,28,02,40,10.20
2013,07,28,02,41,10.20
2013,07,28,02,42,10.20
2013,07,28,02,43,10.20
2013,07,28,02,44,10.20
2013,07,28,02,45,10.20
2013,07,28,02,46,10.20
2013,07,28,02,47,10.20
2013,07,28,02,48,10.20
2013,07,28,02,49,10.20
2013,07,28,02,50,10.20
2013,07,28,02,51,10.20
2013,07,28,02,52,10.20
2013,07,28,02,53,10.20
2013,07,28,02,54,10.20
2013,07,28,02,55,10.20
2013,07,28,02,56,10.20
2013,07,28,02,57,10.20
2013,07,28,02,58,10.10
2013,07,28,02,59,10.10
2013,07,28,03,00,10.10
2013,07,28,03,01,10.10
2013,07,28,03,02,10.10
2013,07,28,03,03,10.10
2013,07,28,03,04,10.10
2013,07,28,03,05,10.10
2013,07,28,03,06,10.10
2013,07,28,03,07,10.10
2013,07,28,03,08,10.10
2013,07,28,03,09,10.10
2013,07,28,03,10,10.10
2013,07,28,03,11,10.10
2013,07,28,03,12,10.10
2013,07,28,03,13,10.00
2013,07,28,03,14,10.00
2013,07,28,03,15,10.00
2013,07,28,03,16,10.00
2013,07,28,03,17,10.00
2013,07,28,03,18,10.00
2013,07,28,03,19,10.00
2013,07,28,03,20,10.00
2013,07,28,03,21,10.00
2013,07,28,03,22,10.00
2013,07,28,03,23,10.00
2013,07,28,03,24,10.00
2013,07,28,03,25,10.00
2013,07,28,03,26,10.00
2013,07,28,03,27,10.00
2013,07,28,03,28,9.90
2013,07,28,03,29,9.90
2013,07,28,03,30,9.90
2013,07,28,03,31,9.90
2013,07,28,03,32,9.90
2013,07,28,03,33,9.90
2013,07,28,03,34,9.90
2013,07,28,03,35,9.90
2013,07,28,03,36,9.90
2013,07,28,03,37,9.90
2013,07,28,03,38,9.90
2013,07,28,03,39,9.90
2013,07,28,03,40,9.90
2013,07,28,03,41,9.90
2013,07,28,03,42,9.90
2013,07,28,03,43,9.80
2013,07,28,03,44,9.80
2013,07,28,03,45,9.80
2013,07,28,03,46,9.80
2013,07,28,03,47,9.80
2013,07,28,03,48,9.80
2013,07,28,03,49,9.80
2013,07,28,03,50,9.80
2013,07,28,03,51,9.80
2013,07,28,03,52,9.80
2013,07,28,03,53,9.80
2013,07,28,03,54,9.80
2013,07,28,03,55,9.80
2013,07,28,03,56,9.80
2013,07,28,03,57,9.80
2013,07,28,03,58,9.90
2013,07,28,03,59,9.90
2013,07,28,04,00,9.90
2013,07,28,04,01,9.90
2013,07,28,04,02,9.90
2013,07,28,04,03,9.90
2013,07,28,04,04,9.90
2013,07,28,04,05,9.90
2013,07,28,04,06,9.90
2013,07,28,04,07,9.90
2013,07,28,04,08,9.90
2013,07,28,04,09,9.90
2013,07,28,04,10,9.90
2013,07,28,04,11,9.90
2013,07,28,04,12,9.90
2013,07,28,04,13,10.10
2013,07,28,04,14,10.10
2013,07,28,04,15,10.10
2013,07,28,04,16,10.10
2013,07,28,04,17,10.10
2013,07,28,04,18,10.10
2013,07,28,04,19,10.10
2013,07,28,04,20,10.10
2013,07,28,04,21,10.10
2013,07,28,04,22,10.10
2013,07,28,04,23,10.10
2013,07,28,04,24,10.10
2013,07,28,04,25,10.10
2013,07,28,04,26,10.10
2013,07,28,04,27,10.10
2013,07,28,04,28,10.20
2013,07,28,04,29,10.20
2013,07,28,04,30,10.20
2013,07,28,04,31,10.20
2013,07,28,04,32,10.20
2013,07,28,04,33,10.20
2013,07,28,04,34,10.20
2013,07,28,04,35,10.20
2013,07,28,04,36,10.20
2013,07,28,04,37,10.20
2013,07,28,04,38,10.20
2013,07,28,04,39,10.20
2013,07,28,04,40,10.20
2013,07,28,04,41,10.20
2013,07,28,04,42,10.20
2013,07,28,04,43,10.30
2013,07,28,04,44,10.30
2013,07,28,04,45,10.30
2013,07,28,04,46,10.30
2013,07,28,04,47,10.30
2013,07,28,04,48,10.30
2013,07,28,04,49,10.30
2013,07,28,04,50,10.30
2013,07,28,04,51,10.30
2013,07,28,04,52,10.30
2013,07,28,04,53,10.30
2013,07,28,04,54,10.30
2013,07,28,04,55,10.30
2013,07,28,04,56,10.30
2013,07,28,04,57,10.30
2013,07,28,04,58,10.20
2013,07,28,04,59,10.20
2013,07,28,05,00,10.20
2013,07,28,05,01,10.20
2013,07,28,05,02,10.20
2013,07,28,05,03,10.20
2013,07,28,05,04,10.20
2013,07,28,05,05,10.20
2013,07,28,05,06,10.20
2013,07,28,05,07,10.20
2013,07,28,05,08,10.20
2013,07,28,05,09,10.20
2013,07,28,05,10,10.20
2013,07,28,05,11,10.20
2013,07,28,05,12,10.20
2013,07,28,05,13,10.10
2013,07,28,05,14,10.10
2013,07,28,05,15,10.10
2013,07,28,05,16,10.10
2013,07,28,05,17,10.10
2013,07,28,05,18,10.10
2013,07,28,05,19,10.10
2013,07,28,05,20,10.10
2013,07,28,05,21,10.10
2013,07,28,05,22,10.10
2013,07,28,05,23,10.10
2013,07,28,05,24,10.10
2013,07,28,05,25,10.10
2013,07,28,05,26,10.10
2013,07,28,05,27,10.10
2013,07,28,05,28,9.90
2013,07,28,05,29,9.90
2013,07,28,05,30,9.90
2013,07,28,05,31,9.90
2013,07,28,05,32,9.90
2013,07,28,05,33,9.90
2013,07,28,05,34,9.90
2013,07,28,05,35,9.90
2013,07,28,05,36,9.90
2013,07,28,05,37,9.90
2013,07,28,05,38,9.90
2013,07,28,05,39,9.90
2013,07,28,05,40,9.90
2013,07,28,05,41,9.90
2013,07,28,05,42,9.90
2013,07,28,05,43,9.80
2013,07,28,05,44,9.80
2013,07,28,05,45,9.80
2013,07,28,05,46,9.80
2013,07,28,05,47,9.80
2013,07,28,05,48,9.80
2013,07,28,05,49,9.80
2013,07,28,05,50,9.80
2013,07,28,05,51,9.80
2013,07,28,05,52,9.80
2013,07,28,05,53,9.80
2013,07,28,05,54,9.80
2013,07,28,05,55,9.80
2013,07,28,05,56,9.80
2013,07,28,05,57,9.80
2013,07,28,05,58,9.80
2013,07,28,05,59,9.80
2013,07,28,06,00,9.80
2013,07,28,06,01,9.80
2013,07,28,06,02,9.80
2013,07,28,06,03,9.80
2013,07,28,06,04,9.80
2013,07,28,06,05,9.80
2013,07,28,06,06,9.80
2013,07,28,06,07,9.80
2013,07,28,06,08,9.80
2013,07,28,06,09,9.80
2013,07,28,06,10,9.80
2013,07,28,06,11,9.80
2013,07,28,06,12,9.80
2013,07,28,06,13,9.70
2013,07,28,06,14,9.70
2013,07,28,06,15,9.70
2013,07,28,06,16,9.70
2013,07,28,06,17,9.70
2013,07,28,06,18,9.70
2013,07,28,06,19,9.70
2013,07,28,06,20,9.70
2013,07,28,06,21,9.70
2013,07,28,06,22,9.70
2013,07,28,06,23,9.70
2013,07,28,06,24,9.70
2013,07,28,06,25,9.70
2013,07,28,06,26,9.70
2013,07,28,06,27,9.70
2013,07,28,06,28,9.60
2013,07,28,06,29,9.60
2013,07,28,06,30,9.60
2013,07,28,06,31,9.60
2013,07,28,06,32,9.60
2013,07,28,06,33,9.60
2013,07,28,06,34,9.60
2013,07,28,06,35,9.60
2013,07,28,06,36,9.60
2013,07,28,06,37,9.60
2013,07,28,06,38,9.60
2013,07,28,06,39,9.60
2013,07,28,06,40,9.60
2013,07,28,06,41,9.60
2013,07,28,06,42,9.60
2013,07,28,06,43,9.70
2013,07,28,06,44,9.70
2013,07,28,06,45,9.70
2013,07,28,06,47,9.70
2013,07,28,06,48,9.70
2013,07,28,06,49,9.70
2013,07,28,06,50,9.70
2013,07,28,06,51,9.70
2013,07,28,06,52,9.70
2013,07,28,06,53,9.70
2013,07,28,06,54,9.70
2013,07,28,06,55,9.70
2013,07,28,06,56,9.70
2013,07,28,06,57,9.70
2013,07,28,06,58,9.90
2013,07,28,06,59,9.90
2013,07,28,07,00,9.90
2013,07,28,07,01,9.90
2013,07,28,07,02,9.90
2013,07,28,07,03,9.90
2013,07,28,07,04,9.90
2013,07,28,07,05,9.90
2013,07,28,07,06,9.90
2013,07,28,07,07,9.90
2013,07,28,07,08,9.90
2013,07,28,07,09,9.90
2013,07,28,07,11,9.90
2013,07,28,07,12,9.90
2013,07,28,07,13,10.00
2013,07,28,07,14,10.00
2013,07,28,07,15,10.00
2013,07,28,07,16,10.00
2013,07,28,07,17,10.00
2013,07,28,07,18,10.00
2013,07,28,07,19,10.00
2013,07,28,07,20,10.00
2013,07,28,07,21,10.00
2013,07,28,07,22,10.00
2013,07,28,07,23,10.00
2013,07,28,07,24,10.00
2013,07,28,07,25,10.00
2013,07,28,07,26,10.00
2013,07,28,07,27,10.00
2013,07,28,07,28,9.90
2013,07,28,07,29,9.90
2013,07,28,07,30,9.90
2013,07,28,07,31,9.90
2013,07,28,07,32,9.90
2013,07,28,07,33,9.90
2013,07,28,07,34,9.90
2013,07,28,07,35,9.90
2013,07,28,07,36,9.90
2013,07,28,07,37,9.90
2013,07,28,07,38,9.90
2013,07,28,07,39,9.90
2013,07,28,07,40,9.90
2013,07,28,07,41,9.90
2013,07,28,07,42,9.90
2013,07,28,07,43,9.70
2013,07,28,07,44,9.70
2013,07,28,07,45,9.70
2013,07,28,07,46,9.70
2013,07,28,07,47,9.70
2013,07,28,07,48,9.70
2013,07,28,07,49,9.70
2013,07,28,07,50,9.70
2013,07,28,07,51,9.70
2013,07,28,07,52,9.70
2013,07,28,07,53,9.70
2013,07,28,07,54,9.70
2013,07,28,07,55,9.70
2013,07,28,07,56,9.70
2013,07,28,07,57,9.70
2013,07,28,07,58,9.60
2013,07,28,07,59,9.60
2013,07,28,08,00,9.60
2013,07,28,08,01,9.60
2013,07,28,08,02,9.60
2013,07,28,08,03,9.60
2013,07,28,08,04,9.60
2013,07,28,08,05,9.60
2013,07,28,08,06,9.60
2013,07,28,08,07,9.60
2013,07,28,08,08,9.60
2013,07,28,08,09,9.60
2013,07,28,08,10,9.60
2013,07,28,08,11,9.60
2013,07,28,08,12,9.60
2013,07,28,08,13,9.80
2013,07,28,08,14,9.80
2013,07,28,08,15,9.80
2013,07,28,08,16,9.80
2013,07,28,08,17,9.80
2013,07,28,08,18,9.80
2013,07,28,08,19,9.80
2013,07,28,08,20,9.80
2013,07,28,08,21,9.80
2013,07,28,08,22,9.80
2013,07,28,08,23,9.80
2013,07,28,08,24,9.80
2013,07,28,08,25,9.80
2013,07,28,08,26,9.80
2013,07,28,08,27,9.80
2013,07,28,08,28,10.30
2013,07,28,08,29,10.30
2013,07,28,08,30,10.30
2013,07,28,08,31,10.30
2013,07,28,08,32,10.30
2013,07,28,08,33,10.30
2013,07,28,08,34,10.30
2013,07,28,08,35,10.30
2013,07,28,08,36,10.30
2013,07,28,08,37,10.30
2013,07,28,08,38,10.30
2013,07,28,08,39,10.30
2013,07,28,08,40,10.30
2013,07,28,08,41,10.30
2013,07,28,08,42,10.30
2013,07,28,08,43,10.20
2013,07,28,08,44,10.20
2013,07,28,08,45,10.20
2013,07,28,08,46,10.20
2013,07,28,08,47,10.20
2013,07,28,08,48,10.20
2013,07,28,08,49,10.20
2013,07,28,08,50,10.20
2013,07,28,08,51,10.20
2013,07,28,08,52,10.20
2013,07,28,08,53,10.20
2013,07,28,08,54,10.20
2013,07,28,08,55,10.20
2013,07,28,08,56,10.20
2013,07,28,08,57,10.20
2013,07,28,08,58,10.20
2013,07,28,08,59,10.20
2013,07,28,09,00,10.20
2013,07,28,09,01,10.20
2013,07,28,09,02,10.20
2013,07,28,09,03,10.20
2013,07,28,09,04,10.20
2013,07,28,09,05,10.20
2013,07,28,09,06,10.20
2013,07,28,09,07,10.20
2013,07,28,09,08,10.20
2013,07,28,09,09,10.20
2013,07,28,09,10,10.20
2013,07,28,09,11,10.20
2013,07,28,09,12,10.20
2013,07,28,09,13,10.20
2013,07,28,09,14,10.20
2013,07,28,09,15,10.20
2013,07,28,09,16,10.20
2013,07,28,09,17,10.20
2013,07,28,09,18,10.20
2013,07,28,09,19,10.20
2013,07,28,09,20,10.20
2013,07,28,09,21,10.20
2013,07,28,09,22,10.20
2013,07,28,09,23,10.20
2013,07,28,09,24,10.20
2013,07,28,09,25,10.20
2013,07,28,09,26,10.20
2013,07,28,09,27,10.20
2013,07,28,09,28,10.10
2013,07,28,09,29,10.10
2013,07,28,09,30,10.10
2013,07,28,09,31,10.10
2013,07,28,09,32,10.10
2013,07,28,09,33,10.10
2013,07,28,09,34,10.10
2013,07,28,09,35,10.10
2013,07,28,09,36,10.10
2013,07,28,09,37,10.10
2013,07,28,09,38,10.10
2013,07,28,09,39,10.10
2013,07,28,09,40,10.10
2013,07,28,09,41,10.10
2013,07,28,09,42,10.10
2013,07,28,09,43,9.90
2013,07,28,09,44,9.90
2013,07,28,09,45,9.90
2013,07,28,09,46,9.90
2013,07,28,09,47,9.90
2013,07,28,09,48,9.90
2013,07,28,09,49,9.90
2013,07,28,09,50,9.90
2013,07,28,09,51,9.90
2013,07,28,09,52,9.90
2013,07,28,09,53,9.90
2013,07,28,09,54,9.90
2013,07,28,09,55,9.90
2013,07,28,09,56,9.90
2013,07,28,09,57,9.90
2013,07,28,09,58,10.10
2013,07,28,09,59,10.10
2013,07,28,10,00,10.10
2013,07,28,10,01,10.10
2013,07,28,10,02,10.10
2013,07,28,10,03,10.10
2013,07,28,10,04,10.10
2013,07,28,10,05,10.10
2013,07,28,10,06,10.10
2013,07,28,10,07,10.10
2013,07,28,10,08,10.10
2013,07,28,10,09,10.10
2013,07,28,10,10,10.10
2013,07,28,10,11,10.10
2013,07,28,10,12,10.10
2013,07,28,10,13,10.00
2013,07,28,10,14,10.00
2013,07,28,10,15,10.00
2013,07,28,10,16,10.00
2013,07,28,10,17,10.00
2013,07,28,10,18,10.00
2013,07,28,10,19,10.00
2013,07,28,10,20,10.00
2013,07,28,10,21,10.00
2013,07,28,10,22,10.00
2013,07,28,10,23,10.00
2013,07,28,10,24,10.00
2013,07,28,10,25,10.00
2013,07,28,10,26,10.00
2013,07,28,10,27,10.00
2013,07,28,10,28,10.50
2013,07,28,10,29,10.50
2013,07,28,10,30,10.50
2013,07,28,10,31,10.50
2013,07,28,10,32,10.50
2013,07,28,10,33,10.50
2013,07,28,10,34,10.50
2013,07,28,10,35,10.50
2013,07,28,10,36,10.50
2013,07,28,10,37,10.50
2013,07,28,10,38,10.50
2013,07,28,10,39,10.50
2013,07,28,10,40,10.50
2013,07,28,10,41,10.50
2013,07,28,10,42,10.50
2013,07,28,10,43,10.30
2013,07,28,10,44,10.30
2013,07,28,10,45,10.30
2013,07,28,10,46,10.30
2013,07,28,10,47,10.30
2013,07,28,10,48,10.30
2013,07,28,10,49,10.30
2013,07,28,10,50,10.30
2013,07,28,10,51,10.30
2013,07,28,10,52,10.30
2013,07,28,10,53,10.30
2013,07,28,10,54,10.30
2013,07,28,10,55,10.30
2013,07,28,10,56,10.30
2013,07,28,10,57,10.30
2013,07,28,10,58,10.70
2013,07,28,10,59,10.70
2013,07,28,11,00,10.70
2013,07,28,11,01,10.70
2013,07,28,11,02,10.70
2013,07,28,11,03,10.70
2013,07,28,11,04,10.70
2013,07,28,11,05,10.70
2013,07,28,11,06,10.70
2013,07,28,11,07,10.70
2013,07,28,11,08,10.70
2013,07,28,11,09,10.70
2013,07,28,11,10,10.70
2013,07,28,11,11,10.70
2013,07,28,11,12,10.70
2013,07,28,11,13,10.80
2013,07,28,11,14,10.80
2013,07,28,11,15,10.80
2013,07,28,11,16,10.80
2013,07,28,11,17,10.80
2013,07,28,11,18,10.80
2013,07,28,11,19,10.80
2013,07,28,11,20,10.80
2013,07,28,11,21,10.80
2013,07,28,11,22,10.80
2013,07,28,11,23,10.80
2013,07,28,11,24,10.80
2013,07,28,11,25,10.80
2013,07,28,11,26,10.80
2013,07,28,11,27,10.80
2013,07,28,11,28,10.90
2013,07,28,11,29,10.90
2013,07,28,11,30,10.90
2013,07,28,11,31,10.90
2013,07,28,11,32,10.90
2013,07,28,11,33,10.90
2013,07,28,11,34,10.90
2013,07,28,11,35,10.90
2013,07,28,11,36,10.90
2013,07,28,11,37,10.90
2013,07,28,11,38,10.90
2013,07,28,11,39,10.90
2013,07,28,11,40,10.90
2013,07,28,11,41,10.90
2013,07,28,11,42,10.90
2013,07,28,11,43,11.80
2013,07,28,11,44,11.80
2013,07,28,11,45,11.80
2013,07,28,11,46,11.80
2013,07,28,11,47,11.80
2013,07,28,11,48,11.80
2013,07,28,11,49,11.80
2013,07,28,11,50,11.80
2013,07,28,11,51,11.80
2013,07,28,11,52,11.80
2013,07,28,11,53,11.80
2013,07,28,11,54,11.80
2013,07,28,11,55,11.80
2013,07,28,11,56,11.80
2013,07,28,11,57,11.80
2013,07,28,11,58,12.10
2013,07,28,11,59,12.10
2013,07,28,12,00,12.10
2013,07,28,12,01,12.10
2013,07,28,12,02,12.10
2013,07,28,12,03,12.10
2013,07,28,12,04,12.10
2013,07,28,12,05,12.10
2013,07,28,12,06,12.10
2013,07,28,12,07,12.10
2013,07,28,12,08,12.10
2013,07,28,12,09,12.10
2013,07,28,12,10,12.10
2013,07,28,12,11,12.10
2013,07,28,12,12,12.10
2013,07,28,12,13,12.20
2013,07,28,12,14,12.20
2013,07,28,12,15,12.20
2013,07,28,12,16,12.20
2013,07,28,12,17,12.20
2013,07,28,12,18,12.20
2013,07,28,12,19,12.20
2013,07,28,12,20,12.20
2013,07,28,12,21,12.20
2013,07,28,12,22,12.20
2013,07,28,12,23,12.20
2013,07,28,12,24,12.20
2013,07,28,12,25,12.20
2013,07,28,12,26,12.20
2013,07,28,12,27,12.20
2013,07,28,12,28,12.40
2013,07,28,12,29,12.40
2013,07,28,12,30,12.40
2013,07,28,12,31,12.40
2013,07,28,12,32,12.40
2013,07,28,12,33,12.40
2013,07,28,12,34,12.40
2013,07,28,12,35,12.40
2013,07,28,12,36,12.40
2013,07,28,12,37,12.40
2013,07,28,12,38,12.40
2013,07,28,12,39,12.40
2013,07,28,12,40,12.40
2013,07,28,12,41,12.40
2013,07,28,12,42,12.40
2013,07,28,12,43,12.80
2013,07,28,12,44,12.80
2013,07,28,12,45,12.80
2013,07,28,12,46,12.80
2013,07,28,12,47,12.80
2013,07,28,12,48,12.80
2013,07,28,12,49,12.80
2013,07,28,12,50,12.80
2013,07,28,12,51,12.80
2013,07,28,12,52,12.80
2013,07,28,12,53,12.80
2013,07,28,12,54,12.80
2013,07,28,12,55,12.80
2013,07,28,12,56,12.80
2013,07,28,12,57,12.80
2013,07,28,12,58,12.80
2013,07,28,12,59,12.80
2013,07,28,13,00,12.80
2013,07,28,13,01,12.80
2013,07,28,13,02,12.80
2013,07,28,13,03,12.80
2013,07,28,13,04,12.80
2013,07,28,13,05,12.80
2013,07,28,13,06,12.80
2013,07,28,13,07,12.80
2013,07,28,13,08,12.80
2013,07,28,13,09,12.80
2013,07,28,13,10,12.80
2013,07,28,13,11,12.80
2013,07,28,13,12,12.80
2013,07,28,13,13,12.60
2013,07,28,13,14,12.60
2013,07,28,13,15,12.60
2013,07,28,13,16,12.60
2013,07,28,13,17,12.60
2013,07,28,13,18,12.60
2013,07,28,13,19,12.60
2013,07,28,13,20,12.60
2013,07,28,13,21,12.60
2013,07,28,13,22,12.60
2013,07,28,13,23,12.60
2013,07,28,13,24,12.60
2013,07,28,13,25,12.60
2013,07,28,13,26,12.60
2013,07,28,13,27,12.60
2013,07,28,13,28,12.30
2013,07,28,13,29,12.30
2013,07,28,13,30,12.30
2013,07,28,13,31,12.30
2013,07,28,13,32,12.30
2013,07,28,13,33,12.30
2013,07,28,13,34,12.30
2013,07,28,13,35,12.30
2013,07,28,13,36,12.30
2013,07,28,13,37,12.30
2013,07,28,13,38,12.30
2013,07,28,13,39,12.30
2013,07,28,13,40,12.30
2013,07,28,13,41,12.30
2013,07,28,13,42,12.30
2013,07,28,13,43,12.20
2013,07,28,13,44,12.20
2013,07,28,13,45,12.20
2013,07,28,13,46,12.20
2013,07,28,13,47,12.20
2013,07,28,13,48,12.20
2013,07,28,13,49,12.20
2013,07,28,13,50,12.20
2013,07,28,13,51,12.20
2013,07,28,13,52,12.20
2013,07,28,13,53,12.20
2013,07,28,13,54,12.20
2013,07,28,13,55,12.20
2013,07,28,13,56,12.20
2013,07,28,13,57,12.20
2013,07,28,13,58,12.20
2013,07,28,13,59,12.20
2013,07,28,14,00,12.20
2013,07,28,14,01,12.20
2013,07,28,14,02,12.20
2013,07,28,14,03,12.20
2013,07,28,14,04,12.20
2013,07,28,14,05,12.20
2013,07,28,14,06,12.20
2013,07,28,14,07,12.20
2013,07,28,14,08,12.20
2013,07,28,14,09,12.20
2013,07,28,14,10,12.20
2013,07,28,14,11,12.20
2013,07,28,14,12,12.20
2013,07,28,14,13,12.40
2013,07,28,14,14,12.40
2013,07,28,14,15,12.40
2013,07,28,14,16,12.40
2013,07,28,14,17,12.40
2013,07,28,14,18,12.40
2013,07,28,14,19,12.40
2013,07,28,14,20,12.40
2013,07,28,14,21,12.40
2013,07,28,14,22,12.40
2013,07,28,14,23,12.40
2013,07,28,14,24,12.40
2013,07,28,14,25,12.40
2013,07,28,14,26,12.40
2013,07,28,14,27,12.40
2013,07,28,14,28,12.90
2013,07,28,14,29,12.90
2013,07,28,14,30,12.90
2013,07,28,14,31,12.90
2013,07,28,14,32,12.90
2013,07,28,14,33,12.90
2013,07,28,14,34,12.90
2013,07,28,14,35,12.90
2013,07,28,14,36,12.90
2013,07,28,14,37,12.90
2013,07,28,14,38,12.90
2013,07,28,14,39,12.90
2013,07,28,14,40,12.90
2013,07,28,14,41,12.90
2013,07,28,14,42,12.90
2013,07,28,14,43,13.30
2013,07,28,14,44,13.30
2013,07,28,14,45,13.30
2013,07,28,14,46,13.30
2013,07,28,14,47,13.30
2013,07,28,14,48,13.30
2013,07,28,14,49,13.30
2013,07,28,14,50,13.30
2013,07,28,14,51,13.30
2013,07,28,14,52,13.30
2013,07,28,14,53,13.30
2013,07,28,14,54,13.30
2013,07,28,14,55,13.30
2013,07,28,14,56,13.30
2013,07,28,14,57,13.30
2013,07,28,14,58,12.90
2013,07,28,14,59,12.90
2013,07,28,15,00,12.90
2013,07,28,15,01,12.90
2013,07,28,15,02,12.90
2013,07,28,15,03,12.90
2013,07,28,15,04,12.90
2013,07,28,15,05,12.90
2013,07,28,15,06,12.90
2013,07,28,15,07,12.90
2013,07,28,15,08,12.90
2013,07,28,15,09,12.90
2013,07,28,15,10,12.90
2013,07,28,15,11,12.90
2013,07,28,15,12,12.90
2013,07,28,15,13,12.80
2013,07,28,15,14,12.80
2013,07,28,15,15,12.80
2013,07,28,15,16,12.80
2013,07,28,15,17,12.80
2013,07,28,15,18,12.80
2013,07,28,15,19,12.80
2013,07,28,15,20,12.80
2013,07,28,15,21,12.80
2013,07,28,15,22,12.80
2013,07,28,15,23,12.80
2013,07,28,15,24,12.80
2013,07,28,15,25,12.80
2013,07,28,15,26,12.80
2013,07,28,15,27,12.80
2013,07,28,15,28,12.60
2013,07,28,15,29,12.60
2013,07,28,15,30,12.60
2013,07,28,15,31,12.60
2013,07,28,15,32,12.60
2013,07,28,15,33,12.60
2013,07,28,15,34,12.60
2013,07,28,15,35,12.60
2013,07,28,15,36,12.60
2013,07,28,15,37,12.60
2013,07,28,15,38,12.60
2013,07,28,15,39,12.60
2013,07,28,15,40,12.60
2013,07,28,15,41,12.60
2013,07,28,15,42,12.60
2013,07,28,15,43,12.70
2013,07,28,15,44,12.70
2013,07,28,15,45,12.70
2013,07,28,15,46,12.70
2013,07,28,15,47,12.70
2013,07,28,15,48,12.70
2013,07,28,15,49,12.70
2013,07,28,15,50,12.70
2013,07,28,15,51,12.70
2013,07,28,15,52,12.70
2013,07,28,15,53,12.70
2013,07,28,15,54,12.70
2013,07,28,15,55,12.70
2013,07,28,15,56,12.70
2013,07,28,15,57,12.70
2013,07,28,15,58,13.10
2013,07,28,15,59,13.10
2013,07,28,16,00,13.10
2013,07,28,16,01,13.10
2013,07,28,16,02,13.10
2013,07,28,16,03,13.10
2013,07,28,16,04,13.10
2013,07,28,16,05,13.10
2013,07,28,16,06,13.10
2013,07,28,16,07,13.10
2013,07,28,16,08,13.10
2013,07,28,16,09,13.10
2013,07,28,16,10,13.10
2013,07,28,16,11,13.10
2013,07,28,16,12,13.10
2013,07,28,16,13,13.20
2013,07,28,16,14,13.20
2013,07,28,16,15,13.20
2013,07,28,16,16,13.20
2013,07,28,16,17,13.20
2013,07,28,16,18,13.20
2013,07,28,16,19,13.20
2013,07,28,16,20,13.20
2013,07,28,16,21,13.20
2013,07,28,16,22,13.20
2013,07,28,16,23,13.20
2013,07,28,16,24,13.20
2013,07,28,16,25,13.20
2013,07,28,16,26,13.20
2013,07,28,16,27,13.20
2013,07,28,16,28,13.40
2013,07,28,16,29,13.40
2013,07,28,16,30,13.40
2013,07,28,16,31,13.40
2013,07,28,16,32,13.40
2013,07,28,16,33,13.40
2013,07,28,16,34,13.40
2013,07,28,16,35,13.40
2013,07,28,16,36,13.40
2013,07,28,16,37,13.40
2013,07,28,16,38,13.40
2013,07,28,16,39,13.40
2013,07,28,16,40,13.40
2013,07,28,16,41,13.40
2013,07,28,16,42,13.40
2013,07,28,16,43,13.60
2013,07,28,16,44,13.60
2013,07,28,16,45,13.60
2013,07,28,16,46,13.60
2013,07,28,16,47,13.60
2013,07,28,16,48,13.60
2013,07,28,16,49,13.60
2013,07,28,16,50,13.60
2013,07,28,16,51,13.60
2013,07,28,16,52,13.60
2013,07,28,16,53,13.60
2013,07,28,16,54,13.60
2013,07,28,16,55,13.60
2013,07,28,16,56,13.60
2013,07,28,16,57,13.60
2013,07,28,16,58,13.20
2013,07,28,16,59,13.20
2013,07,28,17,00,13.20
2013,07,28,17,01,13.20
2013,07,28,17,02,13.20
2013,07,28,17,03,13.20
2013,07,28,17,04,13.20
2013,07,28,17,05,13.20
2013,07,28,17,06,13.20
2013,07,28,17,07,13.20
2013,07,28,17,08,13.20
2013,07,28,17,09,13.20
2013,07,28,17,10,13.20
2013,07,28,17,11,13.20
2013,07,28,17,12,13.20
2013,07,28,17,13,13.60
2013,07,28,17,14,13.60
2013,07,28,17,15,13.60
2013,07,28,17,16,13.60
2013,07,28,17,17,13.60
2013,07,28,17,18,13.60
2013,07,28,17,19,13.60
2013,07,28,17,20,13.60
2013,07,28,17,21,13.60
2013,07,28,17,22,13.60
2013,07,28,17,23,13.60
2013,07,28,17,24,13.60
2013,07,28,17,25,13.60
2013,07,28,17,26,13.60
2013,07,28,17,27,13.60
2013,07,28,17,28,13.80
2013,07,28,17,29,13.80
2013,07,28,17,30,13.80
2013,07,28,17,31,13.80
2013,07,28,17,32,13.80
2013,07,28,17,33,13.80
2013,07,28,17,34,13.80
2013,07,28,17,35,13.80
2013,07,28,17,36,13.80
2013,07,28,17,37,13.80
2013,07,28,17,38,13.80
2013,07,28,17,39,13.80
2013,07,28,17,40,13.80
2013,07,28,17,41,13.80
2013,07,28,17,42,13.80
2013,07,28,17,43,13.70
2013,07,28,17,44,13.70
2013,07,28,17,45,13.70
2013,07,28,17,46,13.70
2013,07,28,17,47,13.70
2013,07,28,17,48,13.70
2013,07,28,17,49,13.70
2013,07,28,17,50,13.70
2013,07,28,17,51,13.70
2013,07,28,17,52,13.70
2013,07,28,17,53,13.70
2013,07,28,17,54,13.70
2013,07,28,17,55,13.70
2013,07,28,17,56,13.70
2013,07,28,17,57,13.70
2013,07,28,17,58,13.40
2013,07,28,17,59,13.40
2013,07,28,18,00,13.40
2013,07,28,18,01,13.40
2013,07,28,18,02,13.40
2013,07,28,18,03,13.40
2013,07,28,18,04,13.40
2013,07,28,18,05,13.40
2013,07,28,18,06,13.40
2013,07,28,18,07,13.40
2013,07,28,18,08,13.40
2013,07,28,18,09,13.40
2013,07,28,18,10,13.40
2013,07,28,18,11,13.40
2013,07,28,18,12,13.40
2013,07,28,18,13,13.20
2013,07,28,18,14,13.20
2013,07,28,18,15,13.20
2013,07,28,18,16,13.20
2013,07,28,18,17,13.20
2013,07,28,18,18,13.20
2013,07,28,18,19,13.20
2013,07,28,18,20,13.20
2013,07,28,18,21,13.20
2013,07,28,18,22,13.20
2013,07,28,18,23,13.20
2013,07,28,18,24,13.20
2013,07,28,18,25,13.20
2013,07,28,18,26,13.20
2013,07,28,18,27,13.20
2013,07,28,18,28,13.10
2013,07,28,18,29,13.10
2013,07,28,18,30,13.10
2013,07,28,18,31,13.10
2013,07,28,18,32,13.10
2013,07,28,18,33,13.10
2013,07,28,18,34,13.10
2013,07,28,18,35,13.10
2013,07,28,18,36,13.10
2013,07,28,18,37,13.10
2013,07,28,18,38,13.10
2013,07,28,18,39,13.10
2013,07,28,18,40,13.10
2013,07,28,18,41,13.10
2013,07,28,18,42,13.10
2013,07,28,18,43,13.20
2013,07,28,18,44,13.20